Tracking 30166 objects as of 22-Jan-2025
HD Live streaming from Space Station
objects crossing your sky now

DMSP 5D-2 F11 DEB

Track DMSP 5D-2 F11 DEB now!
10-day predictions


NORAD ID: 28310
Int'l Code: 1991-082X
Perigee: 642.1 km
Apogee: 645.8 km
Inclination: 98.5 °
Period: 97.5 minutes
Semi major axis: 7014 km
RCS: 0.0074 m2 (small)
Launch date: November 28, 1991
Source: United States (US)
Launch site: AIR FORCE WESTERN TEST RANGE (AFWTR)

Note: This is SATELLITE DEBRIS
Your satellite tracking list
Your tracking list is empty




NASA's NSSDC Master Catalog

Two Line Element Set (TLE):
1 28310U 91082X   25022.23911281  .00067301  00000-0  93278-2 0  9990
2 28310  98.5451 120.7556 0002648  27.7840 332.3510 14.77618254 83870
Source of the keplerian elements: AFSPC